Location: Warwick
(41.7000°N, 71.4170°W)
Time: 21:15:53
(UTC-04:00)

N. Korean satellite - Visible Passes

Search period start: 19 October 2017 00:00
Search period end: 29 October 2017 00:00
Orbit: 459 x 517 km, 97.2° (Epoch: 19 October)

Date Brightness Start Highest point End Pass type
(mag) Time Alt. Az. Time Alt. Az. Time Alt. Az.
19 Oct 7.2 19:01:34 10° S 19:05:02 58° W 19:08:30 10° NNW visible
20 Oct 10.6 06:30:57 10° E 06:31:35 10° E 06:32:12 10° ESE visible
20 Oct 6.4 18:38:13 10° SSE 18:41:43 65° ENE 18:45:11 10° N visible
21 Oct 9.9 19:50:06 10° SW 19:52:04 14° W 19:54:03 10° WNW visible
22 Oct 8.8 19:25:34 10° SSW 19:28:35 27° W 19:31:37 10° NW visible
23 Oct 7.2 19:01:45 10° S 19:05:11 57° W 19:08:37 10° NNW visible
24 Oct 10.5 06:30:51 10° ENE 06:31:44 11° E 06:32:35 10° ESE visible
24 Oct 6.4 18:38:23 10° SSE 18:41:50 66° ENE 18:45:17 10° N visible
25 Oct 7.2 18:15:27 10° SE 18:18:34 31° ENE 18:21:41 10° N visible
25 Oct 9.9 19:50:18 10° SW 19:52:12 14° W 19:54:06 10° WNW visible
26 Oct 8.8 19:25:43 10° SSW 19:28:42 27° W 19:31:41 10° NW visible
27 Oct 7.2 19:01:52 10° S 19:05:16 56° W 19:08:41 10° NNW visible
28 Oct 10.4 06:30:45 10° ENE 06:31:49 11° E 06:32:54 10° ESE visible
28 Oct 6.4 18:38:29 10° SSE 18:41:55 67° ENE 18:45:21 10° N visible
